TimeCDT,TemperatureF,Dew PointF,Humidity,Sea Level PressureIn,VisibilityMPH,Wind Direction,Wind SpeedMPH,Gust SpeedMPH,PrecipitationIn,Events,Conditions,WindDirDegrees,DateUTC
12:53 AM,45.0,34.0,65,30.05,10.0,ESE,5.8,-,N/A,,Clear,110,2012-11-03 05:53:00
1:53 AM,46.0,34.0,63,30.03,10.0,ESE,6.9,-,N/A,,Mostly Cloudy,120,2012-11-03 06:53:00
2:53 AM,45.0,34.0,65,30.02,10.0,ESE,9.2,-,N/A,,Clear,110,2012-11-03 07:53:00
3:53 AM,44.1,34.0,68,30.02,10.0,ESE,6.9,-,N/A,,Clear,110,2012-11-03 08:53:00
4:53 AM,43.0,34.0,71,30.04,10.0,East,8.1,-,N/A,,Scattered Clouds,90,2012-11-03 09:53:00
5:53 AM,43.0,34.0,71,30.05,10.0,East,6.9,-,N/A,,Partly Cloudy,80,2012-11-03 10:53:00
6:53 AM,43.0,33.1,68,30.04,10.0,East,9.2,-,N/A,,Clear,90,2012-11-03 11:53:00
7:53 AM,43.0,33.1,68,30.04,10.0,East,8.1,-,N/A,,Clear,80,2012-11-03 12:53:00
8:53 AM,45.0,34.0,65,30.05,10.0,East,9.2,-,N/A,,Mostly Cloudy,80,2012-11-03 13:53:00
9:53 AM,46.9,35.1,63,30.04,10.0,ESE,9.2,-,N/A,,Overcast,110,2012-11-03 14:53:00
10:53 AM,50.0,35.1,57,30.05,10.0,East,6.9,-,N/A,,Overcast,80,2012-11-03 15:53:00
11:53 AM,51.1,35.1,54,30.06,10.0,NE,9.2,-,N/A,,Overcast,50,2012-11-03 16:53:00
12:53 PM,51.1,37.0,59,30.06,10.0,North,9.2,-,N/A,,Overcast,10,2012-11-03 17:53:00
1:53 PM,50.0,37.0,61,30.07,10.0,North,10.4,-,N/A,,Overcast,10,2012-11-03 18:53:00
2:53 PM,48.9,37.9,66,30.08,10.0,North,11.5,-,N/A,,Overcast,360,2012-11-03 19:53:00
3:53 PM,50.0,37.0,61,30.10,10.0,North,8.1,-,N/A,,Overcast,360,2012-11-03 20:53:00
4:53 PM,50.0,39.0,66,30.13,10.0,NNE,10.4,-,N/A,,Overcast,20,2012-11-03 21:53:00
5:53 PM,48.0,37.9,68,30.14,10.0,North,11.5,-,N/A,,Overcast,10,2012-11-03 22:53:00
6:53 PM,48.0,37.9,68,30.15,10.0,NNE,8.1,-,N/A,,Overcast,30,2012-11-03 23:53:00
7:53 PM,46.0,37.0,71,30.17,10.0,North,11.5,-,N/A,,Mostly Cloudy,10,2012-11-04 00:53:00
8:53 PM,44.1,37.0,76,30.17,10.0,NNE,10.4,-,N/A,,Clear,30,2012-11-04 01:53:00
9:53 PM,41.0,37.0,86,30.19,8.0,NNE,6.9,-,N/A,,Clear,30,2012-11-04 02:53:00
10:53 PM,39.0,36.0,89,30.20,6.0,NNE,3.5,-,N/A,,Clear,20,2012-11-04 03:53:00
11:53 PM,37.9,35.1,89,30.21,7.0,North,4.6,-,N/A,,Clear,350,2012-11-04 04:53:00